VA3VWX-13 Weather Reports


Display with metric or nautical units.
time (UTC)temp
F
wind
direction
speed
MPH
gust
MPH
rain 1hr
in
rain 24hr
in
rain mn
in
humidity
%
barometer
mb
20260510044851 52 306 1.0 5.0 0.00 0.39 0.00 60 1008.2
20260510044329 52 317 3.0 7.0 0.00 0.39 0.00 60 1008.1
20260510043831 52 308 3.0 5.0 0.00 0.39 0.00 61 1008.0
20260510043340 52 304 2.0 6.0 0.00 0.39 0.00 62 1007.9
20260510042837 52 341 2.0 6.0 0.00 0.39 0.00 63 1007.8
20260510042322 52 318 2.0 5.0 0.00 0.39 0.00 63 1007.7
20260510041829 53 342 3.0 5.0 0.00 0.39 0.00 64 1007.6
20260510041327 53 315 2.0 4.0 0.00 0.39 0.00 65 1007.6
20260510040833 53 333 2.0 6.0 0.00 0.39 0.00 64 1007.5
20260510040349 53 297 2.0 7.0 0.00 0.39 0.00 63 1007.5
20260510035838 53 325 2.0 10.0 0.00 0.39 0.00 63 1007.5
20260510035345 53 300 2.0 10.0 0.00 0.39 0.10 64 1007.4
20260510034822 53 328 2.0 7.0 0.00 0.39 0.10 66 1007.4
20260510034329 54 319 2.0 5.0 0.00 0.39 0.10 67 1007.2
20260510033837 54 339 2.0 5.0 0.00 0.39 0.10 67 1007.0
20260510033334 54 330 1.0 7.0 0.00 0.39 0.10 70 1006.9
20260510032841 54 350 2.0 7.0 0.00 0.39 0.10 68 1007.1
20260510032330 54 306 2.0 5.0 0.00 0.39 0.10 70 1006.9
20260510031823 54 319 1.0 5.0 0.00 0.39 0.10 70 1006.6
20260510031330 54 345 2.0 5.0 0.00 0.39 0.10 71 1006.6
20260510030839 54 9 4.0 5.0 0.00 0.39 0.10 71 1006.5
20260510030356 54 330 2.0 5.0 0.00 0.39 0.10 72 1006.3
20260510025837 55 344 1.0 4.0 0.00 0.39 0.10 73 1006.6
20260510025324 55 328 1.0 5.0 0.00 0.39 0.10 73 1006.6
20260510024831 55 335 2.0 6.0 0.00 0.39 0.10 74 1006.6
20260510024330 55 328 3.0 6.0 0.00 0.39 0.10 77 1006.6
20260510023838 55 333 3.0 9.0 0.00 0.39 0.10 80 1006.4
20260510023324 56 319 4.0 12.0 0.00 0.39 0.10 80 1006.5
20260510022851 56 312 5.0 13.0 0.00 0.39 0.10 80 1006.5
20260510022325 56 320 8.0 13.0 0.00 0.39 0.10 81 1006.5
20260510021831 56 307 4.0 7.0 0.00 0.39 0.10 81 1006.4
20260510021339 56 323 3.0 5.0 0.00 0.39 0.10 81 1006.1
20260510020837 56 309 2.0 5.0 0.00 0.39 0.10 81 1006.0
20260510020348 56 311 2.0 5.0 0.00 0.39 0.10 81 1005.9
20260510015838 56 307 2.0 4.0 0.00 0.39 0.10 81 1005.7
20260510015326 56 307 3.0 4.0 0.00 0.39 0.10 82 1005.6
20260510014823 55 263 1.0 3.0 0.00 0.39 0.10 82 1005.6
20260510014330 55 260 0.0 2.0 0.00 0.39 0.10 82 1005.5
20260510013838 55 258 0.0 2.0 0.00 0.39 0.10 82 1005.4
20260510013345 55 242 0.0 2.0 0.00 0.39 0.10 81 1005.3
20260510012823 55 258 1.0 2.0 0.00 0.39 0.10 81 1005.2
20260510012331 55 253 1.0 2.0 0.00 0.39 0.10 81 1004.9
20260510011829 55 258 0.0 0.0 0.00 0.39 0.10 80 1004.8
20260510011336 55 259 0.0 0.0 0.00 0.39 0.10 80 1004.7
20260510010840 55 262 0.0 0.0 0.00 0.39 0.10 79 1004.6
20260510010358 55 263 0.0 0.0 0.00 0.39 0.10 79 1004.5
20260510005847 56 271 0.0 2.0 0.00 0.39 0.10 78 1004.3
20260510005325 56 290 1.0 3.0 0.00 0.39 0.10 78 1004.2
20260510004831 56 247 0.0 6.0 0.00 0.39 0.10 77 1004.3
20260510004335 56 258 3.0 6.0 0.00 0.39 0.10 77 1004.3
20260510003832 56 290 3.0 5.0 0.00 0.39 0.10 77 1004.1
20260510003340 56 304 2.0 5.0 0.00 0.39 0.10 78 1004.1
20260510002826 56 289 1.0 3.0 0.00 0.39 0.10 78 1004.0
20260510002323 56 299 1.0 8.0 0.00 0.39 0.10 78 1004.1
20260510001830 56 309 3.0 9.0 0.00 0.39 0.10 79 1004.0
20260510001338 56 272 4.0 11.0 0.00 0.39 0.10 79 1003.9
20260510000845 55 267 5.0 11.0 0.00 0.39 0.10 81 1003.8
20260510000403 55 248 3.0 6.0 0.00 0.39 0.10 83 1003.8
20260509235842 54 288 3.0 6.0 0.00 0.39 0.10 84 1003.6
20260509235328 54 283 2.0 5.0 0.00 0.39 0.10 85 1003.4
20260509234823 53 237 0.0 3.0 0.00 0.39 0.10 84 1003.3
20260509234330 53 231 1.0 3.0 0.00 0.39 0.10 84 1003.3
20260509233838 52 257 1.0 7.0 0.00 0.39 0.10 84 1003.2
20260509233345 52 269 2.0 7.0 0.00 0.39 0.10 83 1003.1
20260509232848 52 227 2.0 9.0 0.00 0.39 0.10 83 1003.1
20260509232325 52 219 3.0 13.0 0.00 0.39 0.10 82 1002.9
20260509231831 53 208 5.0 16.0 0.00 0.39 0.10 81 1003.0
20260509231329 53 219 6.0 13.0 0.00 0.39 0.10 80 1003.0
20260509230834 54 226 7.0 15.0 0.00 0.39 0.10 80 1002.8
20260509230350 54 232 9.0 18.0 0.00 0.39 0.10 80 1002.8
20260509225840 54 240 12.0 19.0 0.00 0.39 0.10 80 1002.7
20260509225346 54 207 11.0 17.0 0.08 0.39 0.10 80 1002.8
20260509224822 54 278 7.0 18.0 0.24 0.39 0.10 80 1003.0
20260509224330 54 232 7.0 16.0 0.28 0.39 0.10 79 1002.9
20260509223838 54 223 7.0 15.0 0.35 0.39 0.10 79 1002.7
20260509223335 54 257 6.0 14.0 0.35 0.39 0.10 79 1002.7
20260509222823 55 224 6.0 16.0 0.39 0.39 0.10 78 1002.6
20260509222330 55 231 8.0 16.0 0.39 0.39 0.10 79 1002.6
20260509221828 55 205 7.0 14.0 0.39 0.39 0.10 80 1002.6
20260509221334 55 176 7.0 22.0 0.39 0.39 0.10 80 1002.5
20260509220822 55 205 10.0 25.0 0.39 0.39 0.10 82 1002.3
20260509220355 55 210 14.0 25.0 0.39 0.39 0.10 83 1002.3
20260509215845 55 269 10.0 22.0 0.35 0.35 0.09 82 1002.9
20260509215322 56 353 8.0 15.0 0.28 0.28 0.07 84 1004.0
20260509214829 55 281 4.0 7.0 0.16 0.16 0.04 82 1003.5
20260509214326 55 243 3.0 15.0 0.12 0.12 0.03 80 1003.2
20260509213832 55 245 6.0 15.0 0.04 0.04 0.01 79 1003.0
20260509213339 55 271 7.0 14.0 0.04 0.04 0.01 77 1002.8
20260509212847 56 205 8.0 13.0 0.00 0.00 0.00 76 1002.9
20260509212324 56 222 7.0 14.0 0.00 0.00 0.00 76 1002.8
20260509211830 57 212 5.0 14.0 0.00 0.00 0.00 76 1002.7
20260509211338 57 238 7.0 15.0 0.00 0.00 0.00 76 1002.9
20260509210846 57 171 6.0 15.0 0.00 0.00 0.00 76 1002.9
20260509210404 57 230 8.0 16.0 0.00 0.00 0.00 75 1002.8
20260509205842 57 231 8.0 16.0 0.00 0.00 0.00 75 1002.6
20260509205329 57 181 9.0 17.0 0.00 0.00 0.00 75 1002.3
20260509204824 57 217 8.0 17.0 0.00 0.00 0.00 75 1002.3
20260509204332 57 200 8.0 15.0 0.00 0.00 0.00 75 1002.2
20260509203840 57 159 9.0 14.0 0.00 0.00 0.00 76 1002.5
20260509203347 56 217 6.0 12.0 0.00 0.00 0.00 75 1002.5
20260509202826 57 189 5.0 11.0 0.00 0.00 0.00 75 1002.5
20260509202332 57 160 4.0 16.0 0.00 0.00 0.00 75 1002.5
20260509201838 56 199 7.0 16.0 0.00 0.00 0.00 75 1002.6
20260509201335 56 203 6.0 16.0 0.00 0.00 0.00 74 1002.6
20260509200842 57 208 9.0 15.0 0.00 0.00 0.00 74 1002.6
20260509200340 57 158 7.0 15.0 0.00 0.00 0.00 74 1002.6
20260509195831 57 151 5.0 16.0 0.00 0.00 0.00 74 1003.0
20260509195329 57 155 9.0 16.0 0.00 0.00 0.00 73 1003.1
20260509194837 57 217 7.0 12.0 0.00 0.00 0.00 77 1003.2
20260509194344 54 226 1.0 7.0 0.00 0.00 0.00 79 1003.2
20260509193850 53 225 1.0 6.0 0.00 0.00 0.00 79 1003.1
20260509193328 53 139 1.0 5.0 0.00 0.00 0.00 78 1003.3
20260509192830 53 124 1.0 4.0 0.00 0.00 0.00 79 1003.4
20260509192329 52 118 1.0 4.0 0.00 0.00 0.00 79 1003.6
20260509191836 52 153 2.0 4.0 0.00 0.00 0.00 79 1003.6
20260509191342 52 143 2.0 4.0 0.00 0.00 0.00 78 1003.7
20260509190849 52 70 2.0 8.0 0.00 0.00 0.00 79 1003.7
20260509190407 52 200 3.0 9.0 0.00 0.00 0.00 79 1003.6
20260509185826 52 89 5.0 10.0 0.00 0.00 0.00 78 1003.8
20260509185333 52 129 4.0 11.0 0.00 0.00 0.00 78 1003.8
20260509184838 52 102 5.0 11.0 0.00 0.00 0.00 77 1003.9
20260509184336 53 142 4.0 13.0 0.00 0.00 0.00 77 1003.9
20260509183840 54 174 5.0 11.0 0.00 0.00 0.00 76 1003.9
20260509183326 54 106 4.0 15.0 0.00 0.00 0.00 76 1003.9
20260509182824 55 119 5.0 15.0 0.00 0.00 0.00 77 1003.9
20260509182331 55 117 6.0 11.0 0.00 0.00 0.00 79 1003.9
20260509181839 54 140 4.0 12.0 0.00 0.00 0.00 80 1004.0
20260509181341 54 115 4.0 13.0 0.00 0.00 0.00 79 1004.0
20260509180839 55 148 7.0 13.0 0.00 0.00 0.00 78 1004.0
20260509180355 55 208 6.0 13.0 0.00 0.00 0.00 79 1003.9
20260509175824 56 129 6.0 12.0 0.00 0.00 0.00 77 1004.1
20260509175331 56 151 4.0 10.0 0.00 0.00 0.00 78 1004.2
20260509174828 56 123 5.0 13.0 0.00 0.00 0.00 77 1004.2
20260509174334 56 100 6.0 13.0 0.00 0.00 0.00 77 1004.2
20260509173841 57 158 6.0 12.0 0.00 0.00 0.00 77 1004.3
20260509173347 57 110 3.0 11.0 0.00 0.00 0.00 79 1004.5
20260509172825 56 129 5.0 11.0 0.00 0.00 0.00 79 1004.5
20260509172333 57 160 6.0 11.0 0.00 0.00 0.00 79 1004.7
20260509171842 56 137 7.0 11.0 0.00 0.00 0.00 79 1004.8
20260509171339 57 136 7.0 11.0 0.00 0.00 0.00 79 1005.0
20260509170825 57 121 6.0 11.0 0.00 0.00 0.00 80 1005.1
20260509170344 57 56 6.0 9.0 0.00 0.00 0.00 80 1005.0
20260509165825 57 44 4.0 9.0 0.00 0.00 0.00 80 1005.2
20260509165326 56 71 5.0 9.0 0.00 0.00 0.00 79 1005.3
20260509164834 57 110 4.0 9.0 0.00 0.00 0.00 80 1005.2
20260509164341 56 129 4.0 10.0 0.00 0.00 0.00 81 1005.1
20260509163839 56 129 7.0 10.0 0.00 0.00 0.00 80 1005.3
20260509163326 56 143 5.0 9.0 0.00 0.00 0.00 80 1005.3
20260509162830 55 155 3.0 8.0 0.00 0.00 0.00 81 1005.3
20260509162326 55 200 4.0 7.0 0.00 0.00 0.00 80 1005.2
20260509161833 55 174 3.0 8.0 0.00 0.00 0.00 82 1005.4
20260509161340 55 149 2.0 6.0 0.00 0.00 0.00 81 1005.5
20260509160847 54 111 4.0 7.0 0.00 0.00 0.00 81 1005.5
20260509160404 54 149 3.0 8.0 0.00 0.00 0.00 81 1005.6
20260509155824 54 200 4.0 8.0 0.00 0.00 0.00 81 1005.6
20260509155331 54 127 3.0 8.0 0.00 0.00 0.00 80 1005.7
20260509154838 54 153 4.0 8.0 0.00 0.00 0.00 80 1005.8
20260509154336 54 177 2.0 6.0 0.00 0.00 0.00 81 1006.0
20260509153823 54 115 3.0 5.0 0.00 0.00 0.00 80 1006.1
20260509153347 54 173 1.0 5.0 0.00 0.00 0.00 82 1006.1
20260509152850 53 99 2.0 5.0 0.00 0.00 0.00 82 1006.3
20260509152328 52 112 2.0 5.0 0.00 0.00 0.00 82 1006.3
20260509151834 52 179 3.0 5.0 0.00 0.00 0.00 81 1006.4
20260509151332 52 140 3.0 5.0 0.00 0.00 0.00 82 1006.3
20260509150839 52 148 2.0 6.0 0.00 0.00 0.00 83 1006.4
20260509150357 51 151 2.0 6.0 0.00 0.00 0.00 84 1006.4
20260509145827 51 225 2.0 7.0 0.00 0.00 0.00 85 1006.2
20260509145324 50 98 3.0 7.0 0.00 0.00 0.00 85 1006.1
20260509144832 49 139 3.0 9.0 0.00 0.00 0.00 85 1006.1
20260509144339 48 117 6.0 9.0 0.00 0.00 0.00 84 1006.3
20260509143848 48 104 3.0 7.0 0.00 0.00 0.00 84 1006.4
20260509143326 48 110 3.0 7.0 0.00 0.00 0.00 84 1006.5
20260509142833 48 90 4.0 7.0 0.00 0.00 0.00 84 1006.6
20260509142339 48 92 4.0 7.0 0.00 0.00 0.00 83 1006.6
20260509141834 48 121 3.0 6.0 0.00 0.00 0.00 83 1006.6
20260509141342 49 122 3.0 6.0 0.00 0.00 0.00 83 1006.7
20260509140848 49 124 3.0 5.0 0.00 0.00 0.00 82 1006.8
20260509140407 49 169 1.0 8.0 0.00 0.00 0.00 82 1006.8
20260509135827 49 146 4.0 8.0 0.00 0.00 0.00 82 1006.8
20260509135334 49 119 3.0 7.0 0.00 0.00 0.00 81 1006.7
20260509134840 49 112 3.0 7.0 0.00 0.00 0.00 81 1006.8
20260509134348 49 114 1.0 8.0 0.00 0.00 0.00 81 1006.9
20260509133824 49 114 4.0 8.0 0.00 0.00 0.00 81 1006.7
20260509133330 49 94 3.0 8.0 0.00 0.00 0.00 80 1006.8
20260509132829 49 111 4.0 7.0 0.00 0.00 0.00 80 1006.8
20260509132334 49 73 4.0 7.0 0.00 0.00 0.00 79 1006.9
20260509131822 48 130 4.0 6.0 0.00 0.00 0.00 79 1006.9
20260509131349 48 99 5.0 6.0 0.00 0.00 0.00 79 1007.0
20260509130826 49 80 3.0 6.0 0.00 0.00 0.00 79 1007.0
20260509130345 49 124 3.0 6.0 0.00 0.00 0.00 78 1007.0
20260509125827 49 135 1.0 6.0 0.00 0.00 0.00 78 1007.0
20260509125334 49 169 3.0 6.0 0.00 0.08 0.00 77 1007.1
20260509124833 49 119 1.0 5.0 0.00 0.08 0.00 78 1007.1
20260509124341 49 129 2.0 7.0 0.00 0.08 0.00 77 1007.1
20260509123847 48 121 4.0 9.0 0.00 0.08 0.00 77 1007.1
20260509123325 48 150 4.0 9.0 0.00 0.08 0.00 77 1007.2
20260509122831 49 97 3.0 7.0 0.00 0.08 0.00 76 1007.2
20260509122337 48 127 2.0 7.0 0.00 0.08 0.00 76 1007.2
20260509121843 48 136 2.0 8.0 0.00 0.08 0.00 76 1007.3
20260509121342 48 108 3.0 8.0 0.00 0.08 0.00 75 1007.2
20260509120829 47 115 3.0 5.0 0.00 0.08 0.00 75 1007.3
20260509120347 47 138 2.0 7.0 0.00 0.08 0.00 75 1007.1
20260509115837 48 150 2.0 7.0 0.00 0.08 0.00 75 1007.1
20260509115343 47 118 3.0 6.0 0.00 0.20 0.00 75 1006.9
20260509114836 47 83 2.0 6.0 0.00 0.20 0.00 75 1007.0
20260509114322 47 97 3.0 6.0 0.00 0.20 0.00 74 1007.1
20260509113850 47 146 2.0 5.0 0.00 0.20 0.00 74 1007.0
20260509113328 46 82 2.0 6.0 0.00 0.20 0.00 74 1007.1
20260509112833 46 113 2.0 6.0 0.00 0.20 0.00 74 1007.1
20260509112338 46 83 4.0 6.0 0.00 0.20 0.00 74 1007.1
20260509111844 45 139 3.0 5.0 0.00 0.20 0.00 75 1007.1
20260509111341 45 107 2.0 4.0 0.00 0.20 0.00 75 1007.1
20260509110826 45 124 2.0 4.0 0.00 0.20 0.00 76 1007.1
20260509110346 45 113 2.0 4.0 0.00 0.20 0.00 76 1007.1
20260509105916 45 127 1.0 4.0 0.00 0.20 0.00 76 1007.1
20260509105339 45 96 2.0 4.0 0.00 0.20 0.00 76 1007.1
20260509104846 45 123 1.0 2.0 0.00 0.20 0.00 77 1007.1
20260509104338 45 120 0.0 1.0 0.00 0.20 0.00 76 1007.2
20260509103823 45 122 0.0 2.0 0.00 0.20 0.00 76 1007.2
20260509103331 45 113 0.0 2.0 0.00 0.20 0.00 76 1007.2
20260509102828 45 95 1.0 2.0 0.00 0.20 0.00 76 1007.1
20260509102335 45 104 1.0 2.0 0.00 0.20 0.00 76 1007.1
20260509101822 45 79 0.0 1.0 0.00 0.20 0.00 78 1007.2
20260509101349 45 79 0.0 4.0 0.00 0.20 0.00 77 1007.2
20260509100826 45 75 1.0 4.0 0.00 0.20 0.00 77 1007.2
20260509100345 45 120 0.0 2.0 0.00 0.20 0.00 77 1007.3
20260509095834 45 115 0.0 2.0 0.00 0.20 0.00 79 1007.3
20260509095340 45 106 0.0 2.0 0.00 0.20 0.00 79 1007.4
20260509094838 45 120 0.0 2.0 0.00 0.20 0.00 80 1007.5
20260509094325 45 99 0.0 0.0 0.00 0.20 0.00 79 1007.5
20260509093822 45 85 0.0 0.0 0.00 0.20 0.00 80 1007.5
20260509093329 45 99 0.0 0.0 0.00 0.20 0.00 79 1007.5
20260509092836 45 90 0.0 2.0 0.00 0.20 0.00 80 1007.5
20260509092338 45 113 0.0 2.0 0.00 0.20 0.00 80 1007.5
20260509091846 44 119 0.0 0.0 0.00 0.20 0.00 81 1007.5
20260509091342 44 115 0.0 0.0 0.00 0.20 0.00 81 1007.5
20260509090829 44 115 0.0 0.0 0.00 0.20 0.00 81 1007.6
20260509090343 44 115 0.0 0.0 0.00 0.20 0.00 82 1007.6
20260509085824 44 115 0.0 0.0 0.00 0.20 0.00 82 1007.6
20260509085331 44 115 0.0 0.0 0.00 0.20 0.00 82 1007.6
20260509084839 44 119 0.0 0.0 0.00 0.20 0.00 82 1007.6
20260509084347 44 105 0.0 1.0 0.00 0.20 0.00 83 1007.7
20260509083824 44 85 0.0 2.0 0.00 0.20 0.00 83 1007.6
20260509083333 44 110 1.0 2.0 0.00 0.20 0.00 83 1007.7
20260509082840 43 101 1.0 2.0 0.00 0.20 0.00 83 1007.7
20260509082339 43 119 0.0 0.0 0.00 0.20 0.00 83 1007.8
20260509081826 43 119 0.0 0.0 0.00 0.20 0.00 83 1007.8
20260509081333 43 119 0.0 0.0 0.00 0.20 0.00 83 1007.7
20260509080833 43 118 0.0 0.0 0.00 0.20 0.00 82 1007.7
20260509080346 42 119 0.0 0.0 0.00 0.20 0.00 82 1007.7
20260509075837 42 119 0.0 0.0 0.00 0.20 0.00 81 1007.7
20260509075345 42 119 0.0 0.0 0.00 0.20 0.00 81 1007.8
20260509074823 42 119 0.0 0.0 0.00 0.20 0.00 81 1007.7
20260509074330 42 119 0.0 0.0 0.00 0.20 0.00 81 1007.8
20260509073837 42 119 0.0 0.0 0.00 0.20 0.00 81 1007.7
20260509073334 42 119 0.0 0.0 0.00 0.20 0.00 82 1007.8
20260509072842 42 119 0.0 0.0 0.00 0.20 0.00 82 1007.8
20260509072329 42 119 0.0 0.0 0.00 0.20 0.00 82 1007.9
20260509071827 42 119 0.0 0.0 0.00 0.20 0.00 82 1007.9
20260509071334 42 119 0.0 0.0 0.00 0.20 0.00 82 1007.9
20260509070841 42 119 0.0 0.0 0.00 0.20 0.00 82 1007.9
20260509070358 42 119 0.0 0.0 0.00 0.20 0.00 82 1007.9
20260509065848 42 119 0.0 0.0 0.00 0.20 0.00 82 1007.9
20260509065326 42 119 0.0 0.0 0.00 0.20 0.00 82 1008.0
20260509064833 42 119 0.0 1.0 0.00 0.20 0.00 82 1008.1
20260509064336 42 119 0.0 0.0 0.00 0.20 0.00 82 1008.2
20260509063833 42 119 0.0 0.0 0.00 0.20 0.00 81 1008.3
20260509063341 42 119 0.0 0.0 0.00 0.20 0.00 81 1008.3
20260509062848 41 119 0.0 0.0 0.00 0.20 0.00 80 1008.4
20260509062327 42 119 0.0 0.0 0.00 0.20 0.00 80 1008.5
20260509061833 42 119 0.0 0.0 0.00 0.20 0.00 79 1008.6
20260509061339 42 119 0.0 0.0 0.00 0.20 0.00 79 1008.6
20260509060846 43 119 0.0 0.0 0.00 0.20 0.00 79 1008.7
20260509060353 43 119 0.0 0.0 0.00 0.20 0.00 79 1008.8
20260509055842 43 119 0.0 1.0 0.00 0.20 0.00 79 1008.8
20260509055328 43 119 0.0 1.0 0.00 0.20 0.00 79 1008.9
20260509054827 43 119 0.0 0.0 0.00 0.20 0.00 79 1009.0
20260509054334 43 119 0.0 1.0 0.00 0.20 0.00 79 1009.2
20260509053841 43 119 0.0 1.0 0.00 0.20 0.00 78 1009.2
20260509053348 43 120 0.0 1.0 0.00 0.20 0.00 78 1009.3
20260509052826 43 120 0.0 2.0 0.00 0.20 0.00 78 1009.2
20260509052328 43 122 0.0 2.0 0.00 0.20 0.00 78 1009.4
20260509051834 43 190 0.0 3.0 0.00 0.20 0.00 78 1009.4
20260509051332 43 119 0.0 2.0 0.00 0.20 0.00 78 1009.4
20260509050839 43 153 0.0 0.0 0.00 0.20 0.00 78 1009.2
20260509050357 43 122 0.0 0.0 0.00 0.20 0.00 78 1009.2
20260509045826 43 101 0.0 0.0 0.00 0.20 0.00 78 1009.3
20260509045325 43 113 0.0 0.0 0.00 0.20 0.00 78 1009.4